Time,TemperatureF,DewpointF,PressureIn,WindDirection,WindDirectionDegrees,WindSpeedMPH,WindSpeedGustMPH,Humidity,HourlyPrecipIn,Conditions,Clouds,dailyrainin,SoftwareType,DateUTC
2013-07-12 00:01:00,67.3,65.8,29.82,NE,37,0.0,3.0,95,0.00,,,0.00,VWS V14.01,2013-07-12 04:01:00,
2013-07-12 00:02:00,67.3,65.8,29.82,NE,37,0.0,3.0,95,0.00,,,0.00,VWS V14.01,2013-07-12 04:02:00,
2013-07-12 00:03:00,67.1,65.6,29.82,NE,37,0.0,3.0,95,0.00,,,0.00,VWS V14.01,2013-07-12 04:03:00,
2013-07-12 00:04:00,67.1,65.6,29.82,NE,37,0.0,3.0,95,0.00,,,0.00,VWS V14.01,2013-07-12 04:04:00,
2013-07-12 00:09:00,67.1,65.6,29.82,NE,37,0.0,3.0,95,0.00,,,0.00,VWS V14.01,2013-07-12 04:09:00,
2013-07-12 00:14:00,66.9,65.4,29.82,NE,37,0.0,3.0,95,0.00,,,0.00,VWS V14.01,2013-07-12 04:14:00,
2013-07-12 00:19:00,66.8,65.3,29.82,NE,37,0.0,3.0,95,0.00,,,0.00,VWS V14.01,2013-07-12 04:19:00,
2013-07-12 00:24:00,66.8,65.3,29.82,NE,37,0.0,3.0,95,0.00,,,0.00,VWS V14.01,2013-07-12 04:24:00,
2013-07-12 00:29:00,66.6,65.4,29.82,NE,37,0.0,3.0,96,0.00,,,0.00,VWS V14.01,2013-07-12 04:29:00,
2013-07-12 00:34:00,66.6,65.4,29.82,NE,37,0.0,3.0,96,0.00,,,0.00,VWS V14.01,2013-07-12 04:34:00,
2013-07-12 00:39:00,66.6,65.4,29.82,NE,37,0.0,3.0,96,0.00,,,0.00,VWS V14.01,2013-07-12 04:39:00,
2013-07-12 00:44:00,66.6,65.4,29.82,NE,38,1.0,3.0,96,0.00,,,0.00,VWS V14.01,2013-07-12 04:44:00,
2013-07-12 00:49:00,66.6,65.4,29.82,NE,37,0.0,3.0,96,0.00,,,0.00,VWS V14.01,2013-07-12 04:49:00,
2013-07-12 00:54:00,66.6,65.4,29.82,NE,38,0.0,3.0,96,0.00,,,0.00,VWS V14.01,2013-07-12 04:54:00,
2013-07-12 00:59:00,66.6,65.4,29.82,NE,37,0.0,3.0,96,0.00,,,0.00,VWS V14.01,2013-07-12 04:59:00,
2013-07-12 01:04:00,66.6,65.4,29.82,NE,38,0.0,3.0,96,0.00,,,0.00,VWS V14.01,2013-07-12 05:04:00,
2013-07-12 01:09:00,66.6,65.4,29.82,NE,38,0.0,3.0,96,0.00,,,0.00,VWS V14.01,2013-07-12 05:09:00,
2013-07-12 01:14:00,66.4,65.2,29.82,NE,37,0.0,3.0,96,0.00,,,0.00,VWS V14.01,2013-07-12 05:14:00,
2013-07-12 01:20:00,66.4,65.2,29.81,NE,37,0.0,3.0,96,0.00,,,0.00,VWS V14.01,2013-07-12 05:20:00,
2013-07-12 01:25:00,66.3,65.1,29.81,NE,37,0.0,3.0,96,0.00,,,0.00,VWS V14.01,2013-07-12 05:25:00,
2013-07-12 01:30:00,66.3,65.1,29.81,NE,37,0.0,3.0,96,0.00,,,0.00,VWS V14.01,2013-07-12 05:30:00,
2013-07-12 01:35:00,66.1,64.9,29.81,NE,37,0.0,3.0,96,0.00,,,0.00,VWS V14.01,2013-07-12 05:35:00,
2013-07-12 01:40:00,66.1,64.9,29.81,NE,37,0.0,3.0,96,0.00,,,0.00,VWS V14.01,2013-07-12 05:40:00,
2013-07-12 01:45:00,66.1,64.9,29.81,NE,37,0.0,3.0,96,0.00,,,0.00,VWS V14.01,2013-07-12 05:45:00,
2013-07-12 01:50:00,66.1,64.9,29.81,NE,38,0.0,3.0,96,0.00,,,0.00,VWS V14.01,2013-07-12 05:50:00,
2013-07-12 01:55:00,66.1,64.9,29.81,NE,37,0.0,3.0,96,0.00,,,0.00,VWS V14.01,2013-07-12 05:55:00,
2013-07-12 02:00:00,66.4,65.2,29.81,NE,37,0.0,3.0,96,0.00,,,0.00,VWS V14.01,2013-07-12 06:00:00,
2013-07-12 02:05:00,66.6,65.4,29.81,NE,37,0.0,3.0,96,0.00,,,0.00,VWS V14.01,2013-07-12 06:05:00,
2013-07-12 02:10:00,66.8,65.6,29.81,NE,37,0.0,3.0,96,0.00,,,0.00,VWS V14.01,2013-07-12 06:10:00,
2013-07-12 02:15:00,66.9,65.7,29.81,NE,38,0.0,3.0,96,0.00,,,0.00,VWS V14.01,2013-07-12 06:15:00,
2013-07-12 02:20:00,66.9,65.7,29.80,NE,37,0.0,3.0,96,0.00,,,0.00,VWS V14.01,2013-07-12 06:20:00,
2013-07-12 02:25:00,66.9,65.7,29.80,NE,37,1.0,3.0,96,0.00,,,0.00,VWS V14.01,2013-07-12 06:25:00,
2013-07-12 02:30:00,66.9,65.7,29.80,NNE,19,0.0,3.0,96,0.00,,,0.00,VWS V14.01,2013-07-12 06:30:00,
2013-07-12 02:35:00,67.1,65.9,29.81,NNE,19,0.0,3.0,96,0.00,,,0.00,VWS V14.01,2013-07-12 06:35:00,
2013-07-12 02:40:00,67.1,65.6,29.81,NNE,19,0.0,3.0,95,0.00,,,0.00,VWS V14.01,2013-07-12 06:40:00,
2013-07-12 02:45:00,66.8,65.3,29.81,NNE,19,0.0,3.0,95,0.00,,,0.00,VWS V14.01,2013-07-12 06:45:00,
2013-07-12 02:50:00,66.8,65.3,29.81,NNE,19,0.0,3.0,95,0.00,,,0.00,VWS V14.01,2013-07-12 06:50:00,
2013-07-12 02:55:00,66.6,65.1,29.81,NNE,19,0.0,3.0,95,0.00,,,0.00,VWS V14.01,2013-07-12 06:55:00,
2013-07-12 03:00:00,66.4,64.9,29.80,NNE,19,0.0,3.0,95,0.00,,,0.00,VWS V14.01,2013-07-12 07:00:00,
2013-07-12 03:06:00,66.4,64.9,29.80,WNW,284,0.0,3.0,95,0.00,,,0.00,VWS V14.01,2013-07-12 07:06:00,
2013-07-12 03:11:00,66.6,64.8,29.80,WNW,285,0.0,3.0,94,0.00,,,0.00,VWS V14.01,2013-07-12 07:11:00,
2013-07-12 03:16:00,66.8,64.7,29.81,WNW,285,0.0,3.0,93,0.00,,,0.00,VWS V14.01,2013-07-12 07:16:00,
2013-07-12 03:21:00,66.8,64.7,29.81,WNW,285,1.0,3.0,93,0.00,,,0.00,VWS V14.01,2013-07-12 07:21:00,
2013-07-12 03:26:00,66.9,64.8,29.81,WNW,285,0.0,3.0,93,0.00,,,0.00,VWS V14.01,2013-07-12 07:26:00,
2013-07-12 03:31:00,66.8,64.7,29.80,WNW,285,0.0,3.0,93,0.00,,,0.00,VWS V14.01,2013-07-12 07:31:00,
2013-07-12 03:36:00,66.6,64.5,29.80,WNW,285,0.0,3.0,93,0.00,,,0.00,VWS V14.01,2013-07-12 07:36:00,
2013-07-12 03:41:00,66.6,64.8,29.80,WNW,285,0.0,3.0,94,0.00,,,0.00,VWS V14.01,2013-07-12 07:41:00,
2013-07-12 03:46:00,66.4,64.3,29.81,WNW,285,0.0,3.0,93,0.00,,,0.00,VWS V14.01,2013-07-12 07:46:00,
2013-07-12 03:51:00,66.4,64.3,29.81,WNW,285,0.0,3.0,93,0.00,,,0.00,VWS V14.01,2013-07-12 07:51:00,
2013-07-12 03:52:00,66.4,64.3,29.81,WNW,285,0.0,3.0,93,0.00,,,0.00,VWS V14.01,2013-07-12 07:52:00,
2013-07-12 03:57:00,66.3,64.2,29.81,WNW,285,0.0,3.0,93,0.00,,,0.00,VWS V14.01,2013-07-12 07:57:00,
2013-07-12 04:02:00,66.3,64.2,29.81,WNW,285,0.0,3.0,93,0.00,,,0.00,VWS V14.01,2013-07-12 08:02:00,
2013-07-12 04:07:00,66.4,64.3,29.81,WNW,285,0.0,3.0,93,0.00,,,0.00,VWS V14.01,2013-07-12 08:07:00,
2013-07-12 04:12:00,66.3,64.2,29.81,WNW,285,0.0,3.0,93,0.00,,,0.00,VWS V14.01,2013-07-12 08:12:00,
2013-07-12 04:17:00,66.3,64.2,29.81,WNW,285,0.0,3.0,93,0.00,,,0.00,VWS V14.01,2013-07-12 08:17:00,
2013-07-12 04:22:00,66.1,64.0,29.81,WNW,285,0.0,3.0,93,0.00,,,0.00,VWS V14.01,2013-07-12 08:22:00,
2013-07-12 04:27:00,66.1,64.0,29.81,WNW,285,0.0,3.0,93,0.00,,,0.00,VWS V14.01,2013-07-12 08:27:00,
2013-07-12 04:32:00,66.1,64.0,29.80,WNW,285,0.0,3.0,93,0.00,,,0.00,VWS V14.01,2013-07-12 08:32:00,
2013-07-12 04:37:00,66.0,63.9,29.80,WNW,285,0.0,3.0,93,0.00,,,0.00,VWS V14.01,2013-07-12 08:37:00,
2013-07-12 04:42:00,66.0,63.9,29.80,WNW,285,0.0,3.0,93,0.00,,,0.00,VWS V14.01,2013-07-12 08:42:00,
2013-07-12 04:47:00,65.8,63.7,29.80,WNW,285,0.0,3.0,93,0.00,,,0.00,VWS V14.01,2013-07-12 08:47:00,
2013-07-12 04:52:00,65.6,63.5,29.80,WNW,285,0.0,3.0,93,0.00,,,0.00,VWS V14.01,2013-07-12 08:52:00,
2013-07-12 04:57:00,65.5,63.4,29.80,WNW,285,0.0,3.0,93,0.00,,,0.00,VWS V14.01,2013-07-12 08:57:00,
2013-07-12 05:02:00,65.3,63.2,29.80,WNW,285,0.0,3.0,93,0.00,,,0.00,VWS V14.01,2013-07-12 09:02:00,
2013-07-12 05:07:00,65.2,63.4,29.80,WNW,285,0.0,3.0,94,0.00,,,0.00,VWS V14.01,2013-07-12 09:07:00,
2013-07-12 05:12:00,65.2,63.4,29.80,WNW,285,0.0,3.0,94,0.00,,,0.00,VWS V14.01,2013-07-12 09:12:00,
2013-07-12 05:17:00,65.0,63.2,29.81,WNW,285,0.0,3.0,94,0.00,,,0.00,VWS V14.01,2013-07-12 09:17:00,
2013-07-12 05:22:00,64.8,63.0,29.81,WNW,285,0.0,3.0,94,0.00,,,0.00,VWS V14.01,2013-07-12 09:22:00,
2013-07-12 05:27:00,64.7,62.9,29.81,WNW,285,0.0,3.0,94,0.00,,,0.00,VWS V14.01,2013-07-12 09:27:00,
2013-07-12 05:32:00,64.5,62.7,29.81,WNW,285,0.0,3.0,94,0.00,,,0.00,VWS V14.01,2013-07-12 09:32:00,
2013-07-12 05:38:00,64.3,62.8,29.81,WNW,285,0.0,3.0,95,0.00,,,0.00,VWS V14.01,2013-07-12 09:38:00,
2013-07-12 05:43:00,64.2,62.7,29.81,WNW,285,0.0,3.0,95,0.00,,,0.00,VWS V14.01,2013-07-12 09:43:00,
2013-07-12 05:48:00,64.0,62.5,29.82,WNW,285,0.0,3.0,95,0.00,,,0.00,VWS V14.01,2013-07-12 09:48:00,
2013-07-12 05:53:00,64.0,62.5,29.82,WNW,285,0.0,3.0,95,0.00,,,0.00,VWS V14.01,2013-07-12 09:53:00,
2013-07-12 05:58:00,64.0,62.5,29.82,WNW,285,0.0,3.0,95,0.00,,,0.00,VWS V14.01,2013-07-12 09:58:00,
2013-07-12 06:03:00,64.0,62.5,29.82,WNW,285,0.0,3.0,95,0.00,,,0.00,VWS V14.01,2013-07-12 10:03:00,
2013-07-12 06:08:00,63.9,62.7,29.82,WNW,285,0.0,3.0,96,0.00,,,0.00,VWS V14.01,2013-07-12 10:08:00,
2013-07-12 06:13:00,63.7,62.5,29.82,WNW,285,0.0,3.0,96,0.00,,,0.00,VWS V14.01,2013-07-12 10:13:00,
2013-07-12 06:18:00,63.5,62.3,29.83,WNW,285,0.0,3.0,96,0.00,,,0.00,VWS V14.01,2013-07-12 10:18:00,
2013-07-12 06:24:00,63.5,62.3,29.83,WNW,285,0.0,3.0,96,0.00,,,0.00,VWS V14.01,2013-07-12 10:24:00,
2013-07-12 06:29:00,63.7,62.5,29.83,WNW,285,0.0,3.0,96,0.00,,,0.00,VWS V14.01,2013-07-12 10:29:00,
2013-07-12 06:34:00,63.7,62.5,29.83,WNW,285,0.0,3.0,96,0.00,,,0.00,VWS V14.01,2013-07-12 10:34:00,
2013-07-12 06:39:00,63.7,62.5,29.83,WNW,285,0.0,3.0,96,0.00,,,0.00,VWS V14.01,2013-07-12 10:39:00,
2013-07-12 06:44:00,63.7,62.5,29.83,WNW,285,0.0,3.0,96,0.00,,,0.00,VWS V14.01,2013-07-12 10:44:00,
2013-07-12 06:49:00,63.7,62.5,29.83,WNW,285,0.0,3.0,96,0.00,,,0.00,VWS V14.01,2013-07-12 10:49:00,
2013-07-12 06:54:00,63.7,62.5,29.83,WNW,285,0.0,3.0,96,0.00,,,0.00,VWS V14.01,2013-07-12 10:54:00,
2013-07-12 06:59:00,63.7,62.5,29.83,WNW,285,0.0,3.0,96,0.00,,,0.00,VWS V14.01,2013-07-12 10:59:00,
2013-07-12 07:04:00,63.7,62.5,29.83,WNW,285,0.0,3.0,96,0.00,,,0.00,VWS V14.01,2013-07-12 11:04:00,
2013-07-12 07:09:00,63.7,62.5,29.83,WNW,285,0.0,3.0,96,0.00,,,0.00,VWS V14.01,2013-07-12 11:09:00,
2013-07-12 07:14:00,63.9,62.7,29.83,WNW,285,0.0,3.0,96,0.00,,,0.00,VWS V14.01,2013-07-12 11:14:00,
2013-07-12 07:19:00,63.9,63.0,29.84,WNW,285,0.0,3.0,97,0.00,,,0.00,VWS V14.01,2013-07-12 11:19:00,
2013-07-12 07:24:00,64.0,63.1,29.84,WNW,285,0.0,3.0,97,0.00,,,0.00,VWS V14.01,2013-07-12 11:24:00,
2013-07-12 07:29:00,64.2,63.3,29.84,WNW,285,0.0,3.0,97,0.00,,,0.00,VWS V14.01,2013-07-12 11:29:00,
2013-07-12 07:34:00,64.3,63.4,29.84,WNW,285,0.0,3.0,97,0.00,,,0.00,VWS V14.01,2013-07-12 11:34:00,
2013-07-12 07:39:00,64.3,63.4,29.84,WNW,285,0.0,3.0,97,0.00,,,0.00,VWS V14.01,2013-07-12 11:39:00,
2013-07-12 07:44:00,64.5,63.6,29.84,WNW,285,0.0,3.0,97,0.00,,,0.00,VWS V14.01,2013-07-12 11:44:00,
2013-07-12 07:49:00,64.7,63.8,29.84,WNW,285,0.0,3.0,97,0.00,,,0.00,VWS V14.01,2013-07-12 11:49:00,
2013-07-12 07:54:00,64.8,63.9,29.84,WNW,285,0.0,3.0,97,0.00,,,0.00,VWS V14.01,2013-07-12 11:54:00,
2013-07-12 07:59:00,65.0,64.1,29.84,WNW,285,0.0,3.0,97,0.01,,,0.01,VWS V14.01,2013-07-12 11:59:00,
2013-07-12 08:05:00,65.2,64.3,29.85,WNW,285,0.0,3.0,97,0.01,,,0.01,VWS V14.01,2013-07-12 12:05:00,
2013-07-12 08:10:00,65.3,64.4,29.85,WNW,285,0.0,3.0,97,0.01,,,0.01,VWS V14.01,2013-07-12 12:10:00,
2013-07-12 08:15:00,65.5,64.6,29.85,WNW,285,0.0,3.0,97,0.01,,,0.01,VWS V14.01,2013-07-12 12:15:00,
2013-07-12 08:20:00,65.6,64.7,29.86,WNW,285,0.0,3.0,97,0.01,,,0.01,VWS V14.01,2013-07-12 12:20:00,
2013-07-12 08:25:00,66.0,65.1,29.86,WNW,285,0.0,3.0,97,0.01,,,0.01,VWS V14.01,2013-07-12 12:25:00,
2013-07-12 08:30:00,66.3,65.4,29.86,WNW,290,0.0,3.0,97,0.01,,,0.01,VWS V14.01,2013-07-12 12:30:00,
2013-07-12 08:35:00,66.4,65.5,29.86,East,90,0.0,3.0,97,0.01,,,0.01,VWS V14.01,2013-07-12 12:35:00,
2013-07-12 08:40:00,66.8,65.6,29.86,ENE,67,1.0,3.0,96,0.01,,,0.01,VWS V14.01,2013-07-12 12:40:00,
2013-07-12 08:45:00,67.1,65.9,29.86,ENE,67,0.0,3.0,96,0.01,,,0.01,VWS V14.01,2013-07-12 12:45:00,
2013-07-12 08:50:00,67.3,65.8,29.87,North,355,0.0,3.0,95,0.01,,,0.01,VWS V14.01,2013-07-12 12:50:00,
2013-07-12 08:55:00,67.6,65.8,29.87,North,355,0.0,3.0,94,0.01,,,0.01,VWS V14.01,2013-07-12 12:55:00,
2013-07-12 09:00:00,67.8,65.7,29.87,North,355,0.0,3.0,93,0.01,,,0.01,VWS V14.01,2013-07-12 13:00:00,
2013-07-12 09:06:00,68.3,65.9,29.87,North,355,0.0,3.0,92,0.00,,,0.01,VWS V14.01,2013-07-12 13:06:00,
2013-07-12 09:11:00,68.4,65.0,29.87,North,5,1.0,3.0,89,0.00,,,0.01,VWS V14.01,2013-07-12 13:11:00,
2013-07-12 09:16:00,68.8,65.1,29.88,North,5,0.0,3.0,88,0.00,,,0.01,VWS V14.01,2013-07-12 13:16:00,
2013-07-12 09:21:00,68.9,65.2,29.88,North,5,0.0,3.0,88,0.00,,,0.01,VWS V14.01,2013-07-12 13:21:00,
2013-07-12 09:26:00,69.1,65.4,29.88,North,5,0.0,3.0,88,0.00,,,0.01,VWS V14.01,2013-07-12 13:26:00,
2013-07-12 09:31:00,69.3,65.3,29.88,North,5,0.0,3.0,87,0.00,,,0.01,VWS V14.01,2013-07-12 13:31:00,
2013-07-12 09:36:00,69.3,64.9,29.88,North,5,0.0,3.0,86,0.00,,,0.01,VWS V14.01,2013-07-12 13:36:00,
2013-07-12 09:41:00,69.3,64.9,29.88,North,5,2.0,3.0,86,0.00,,,0.01,VWS V14.01,2013-07-12 13:41:00,
2013-07-12 09:46:00,69.4,65.0,29.88,North,5,0.0,3.0,86,0.00,,,0.01,VWS V14.01,2013-07-12 13:46:00,
2013-07-12 09:51:00,69.6,64.6,29.88,North,9,0.0,3.0,84,0.00,,,0.01,VWS V14.01,2013-07-12 13:51:00,
2013-07-12 09:56:00,69.8,65.1,29.88,North,9,0.0,3.0,85,0.00,,,0.01,VWS V14.01,2013-07-12 13:56:00,
2013-07-12 10:01:00,70.1,65.1,29.88,North,9,0.0,3.0,84,0.00,,,0.01,VWS V14.01,2013-07-12 14:01:00,
2013-07-12 10:07:00,70.4,65.3,29.88,North,9,0.0,3.0,84,0.00,,,0.01,VWS V14.01,2013-07-12 14:07:00,
2013-07-12 10:12:00,70.4,64.7,29.88,NNW,338,2.0,3.0,82,0.00,,,0.01,VWS V14.01,2013-07-12 14:12:00,
2013-07-12 10:17:00,70.6,65.2,29.88,NNW,338,0.0,3.0,83,0.00,,,0.01,VWS V14.01,2013-07-12 14:17:00,
2013-07-12 10:22:00,70.9,65.1,29.88,NNW,339,1.0,3.0,82,0.00,,,0.01,VWS V14.01,2013-07-12 14:22:00,
2013-07-12 10:27:00,71.3,65.5,29.88,NNW,339,1.0,3.0,82,0.00,,,0.01,VWS V14.01,2013-07-12 14:27:00,
2013-07-12 10:32:00,71.5,65.4,29.88,NNW,339,1.0,3.0,81,0.00,,,0.01,VWS V14.01,2013-07-12 14:32:00,
2013-07-12 10:37:00,71.8,65.3,29.88,NNW,339,0.0,3.0,80,0.00,,,0.01,VWS V14.01,2013-07-12 14:37:00,
2013-07-12 10:42:00,72.1,65.9,29.88,NNW,339,0.0,3.0,81,0.00,,,0.01,VWS V14.01,2013-07-12 14:42:00,
2013-07-12 10:47:00,72.8,66.3,29.87,NW,323,0.0,3.0,80,0.00,,,0.01,VWS V14.01,2013-07-12 14:47:00,
2013-07-12 10:53:00,73.3,66.0,29.87,NW,323,0.0,3.0,78,0.00,,,0.01,VWS V14.01,2013-07-12 14:53:00,
2013-07-12 10:58:00,73.3,64.5,29.87,North,355,0.0,3.0,74,0.00,,,0.01,VWS V14.01,2013-07-12 14:58:00,
2013-07-12 11:03:00,73.3,65.3,29.87,North,355,0.0,3.0,76,0.00,,,0.01,VWS V14.01,2013-07-12 15:03:00,
2013-07-12 11:08:00,73.3,64.9,29.87,North,355,0.0,3.0,75,0.00,,,0.01,VWS V14.01,2013-07-12 15:08:00,
2013-07-12 11:13:00,73.3,64.1,29.87,West,260,0.0,3.0,73,0.00,,,0.01,VWS V14.01,2013-07-12 15:13:00,
2013-07-12 11:18:00,73.2,64.8,29.88,West,269,0.0,3.0,75,0.00,,,0.01,VWS V14.01,2013-07-12 15:18:00,
2013-07-12 11:23:00,73.2,64.4,29.88,West,269,0.0,3.0,74,0.00,,,0.01,VWS V14.01,2013-07-12 15:23:00,
2013-07-12 11:29:00,73.0,65.4,29.88,West,269,1.0,3.0,77,0.00,,,0.01,VWS V14.01,2013-07-12 15:29:00,
2013-07-12 11:34:00,73.0,64.2,29.88,West,269,1.0,3.0,74,0.00,,,0.01,VWS V14.01,2013-07-12 15:34:00,
2013-07-12 11:39:00,73.3,63.3,29.88,NNE,13,0.0,3.0,71,0.00,,,0.01,VWS V14.01,2013-07-12 15:39:00,
2013-07-12 11:44:00,73.5,63.9,29.88,NNE,13,0.0,3.0,72,0.00,,,0.01,VWS V14.01,2013-07-12 15:44:00,
2013-07-12 11:49:00,74.0,63.2,29.88,North,355,1.0,3.0,69,0.00,,,0.01,VWS V14.01,2013-07-12 15:49:00,
2013-07-12 11:54:00,74.4,63.6,29.88,North,355,0.0,3.0,69,0.00,,,0.01,VWS V14.01,2013-07-12 15:54:00,
2013-07-12 11:59:00,74.2,63.4,29.88,North,355,0.0,3.0,69,0.00,,,0.01,VWS V14.01,2013-07-12 15:59:00,
2013-07-12 12:04:00,74.7,63.5,29.88,NE,46,0.0,3.0,68,0.00,,,0.01,VWS V14.01,2013-07-12 16:04:00,
2013-07-12 12:10:00,75.3,63.6,29.88,NE,51,1.0,3.0,67,0.00,,,0.01,VWS V14.01,2013-07-12 16:10:00,
2013-07-12 12:15:00,76.1,64.4,29.88,ENE,59,0.0,3.0,67,0.00,,,0.01,VWS V14.01,2013-07-12 16:15:00,
2013-07-12 12:20:00,76.3,63.2,29.87,West,270,3.0,3.0,64,0.00,,,0.01,VWS V14.01,2013-07-12 16:20:00,
2013-07-12 12:25:00,76.7,62.7,29.87,West,277,2.0,3.0,62,0.00,,,0.01,VWS V14.01,2013-07-12 16:25:00,
2013-07-12 12:30:00,76.7,63.6,29.87,West,277,0.0,3.0,64,0.00,,,0.01,VWS V14.01,2013-07-12 16:30:00,
2013-07-12 12:35:00,77.2,63.2,29.87,West,277,0.0,3.0,62,0.00,,,0.01,VWS V14.01,2013-07-12 16:35:00,
2013-07-12 12:40:00,77.9,62.4,29.87,West,277,0.0,3.0,59,0.00,,,0.01,VWS V14.01,2013-07-12 16:40:00,
2013-07-12 12:46:00,77.6,63.6,29.87,NE,53,0.0,3.0,62,0.00,,,0.01,VWS V14.01,2013-07-12 16:46:00,
2013-07-12 12:51:00,77.7,65.0,29.87,North,355,3.0,3.0,65,0.00,,,0.01,VWS V14.01,2013-07-12 16:51:00,
2013-07-12 12:56:00,77.9,63.4,29.87,West,276,5.0,5.0,61,0.00,,,0.01,VWS V14.01,2013-07-12 16:56:00,
2013-07-12 13:01:00,78.6,63.6,29.86,North,5,0.0,3.0,60,0.00,,,0.01,VWS V14.01,2013-07-12 17:01:00,
2013-07-12 13:06:00,79.2,62.7,29.86,NNE,29,0.0,3.0,57,0.00,,,0.01,VWS V14.01,2013-07-12 17:06:00,
2013-07-12 13:11:00,78.5,60.5,29.86,NNE,15,1.0,3.0,54,0.00,,,0.01,VWS V14.01,2013-07-12 17:11:00,
2013-07-12 13:17:00,78.5,62.5,29.87,NNE,14,1.0,3.0,58,0.00,,,0.01,VWS V14.01,2013-07-12 17:17:00,
2013-07-12 13:22:00,78.8,61.8,29.87,NNE,14,0.0,3.0,56,0.00,,,0.01,VWS V14.01,2013-07-12 17:22:00,
2013-07-12 13:28:00,78.8,61.8,29.87,NNE,22,4.0,4.0,56,0.00,,,0.01,VWS V14.01,2013-07-12 17:28:00,
2013-07-12 13:33:00,78.8,62.8,29.86,NE,51,1.0,3.0,58,0.00,,,0.01,VWS V14.01,2013-07-12 17:33:00,
2013-07-12 13:39:00,78.8,59.7,29.86,ENE,72,0.0,3.0,52,0.00,,,0.01,VWS V14.01,2013-07-12 17:39:00,
2013-07-12 13:44:00,79.4,61.3,29.86,SSW,210,2.0,3.0,54,0.00,,,0.01,VWS V14.01,2013-07-12 17:44:00,
2013-07-12 13:50:00,80.3,61.1,29.85,WSW,244,0.0,3.0,52,0.00,,,0.01,VWS V14.01,2013-07-12 17:50:00,
2013-07-12 13:55:00,80.9,61.6,29.85,North,11,2.0,3.0,52,0.00,,,0.01,VWS V14.01,2013-07-12 17:55:00,
2013-07-12 14:00:00,81.8,61.9,29.85,NW,316,6.0,6.0,51,0.00,,,0.01,VWS V14.01,2013-07-12 18:00:00,
2013-07-12 14:05:00,82.4,61.3,29.85,NW,304,2.0,3.0,49,0.00,,,0.01,VWS V14.01,2013-07-12 18:05:00,
2013-07-12 14:11:00,81.4,61.5,29.85,North,349,0.0,3.0,51,0.00,,,0.01,VWS V14.01,2013-07-12 18:11:00,
2013-07-12 14:16:00,80.9,62.2,29.85,NNW,348,0.0,3.0,53,0.00,,,0.01,VWS V14.01,2013-07-12 18:16:00,
2013-07-12 14:21:00,80.1,63.0,29.85,NNW,348,0.0,3.0,56,0.00,,,0.01,VWS V14.01,2013-07-12 18:21:00,
2013-07-12 14:26:00,79.2,62.2,29.85,SSE,149,1.0,3.0,56,0.00,,,0.01,VWS V14.01,2013-07-12 18:26:00,
2013-07-12 14:31:00,78.8,63.3,29.86,North,355,3.0,3.0,59,0.00,,,0.01,VWS V14.01,2013-07-12 18:31:00,
2013-07-12 14:37:00,79.2,63.2,29.86,NE,53,2.0,3.0,58,0.00,,,0.01,VWS V14.01,2013-07-12 18:37:00,
2013-07-12 14:42:00,80.3,63.7,29.86,NE,53,0.0,3.0,57,0.00,,,0.01,VWS V14.01,2013-07-12 18:42:00,
2013-07-12 14:47:00,81.4,62.1,29.86,NNE,29,1.0,3.0,52,0.00,,,0.01,VWS V14.01,2013-07-12 18:47:00,
2013-07-12 14:53:00,81.1,63.4,29.86,NW,319,1.0,3.0,55,0.00,,,0.01,VWS V14.01,2013-07-12 18:53:00,
2013-07-12 14:59:00,81.1,62.9,29.86,ESE,109,0.0,3.0,54,0.00,,,0.01,VWS V14.01,2013-07-12 18:59:00,
2013-07-12 15:04:00,79.9,61.8,29.85,NNE,26,2.0,3.0,54,0.00,,,0.01,VWS V14.01,2013-07-12 19:04:00,
2013-07-12 15:09:00,79.6,62.5,29.85,NW,314,2.0,3.0,56,0.00,,,0.01,VWS V14.01,2013-07-12 19:09:00,
2013-07-12 15:15:00,80.9,61.1,29.85,NW,314,0.0,3.0,51,0.00,,,0.01,VWS V14.01,2013-07-12 19:15:00,
2013-07-12 15:20:00,80.9,60.5,29.85,NNW,329,3.0,3.0,50,0.00,,,0.01,VWS V14.01,2013-07-12 19:20:00,
2013-07-12 15:26:00,81.6,61.2,29.85,NNW,337,1.0,3.0,50,0.00,,,0.01,VWS V14.01,2013-07-12 19:26:00,
2013-07-12 15:31:00,81.8,60.8,29.84,NNW,341,3.0,3.0,49,0.00,,,0.01,VWS V14.01,2013-07-12 19:31:00,
2013-07-12 15:36:00,82.2,61.2,29.84,North,5,2.0,3.0,49,0.00,,,0.01,VWS V14.01,2013-07-12 19:36:00,
2013-07-12 15:42:00,82.2,61.2,29.84,NNW,340,1.0,3.0,49,0.00,,,0.01,VWS V14.01,2013-07-12 19:42:00,
2013-07-12 15:47:00,82.4,60.2,29.84,NNW,332,1.0,3.0,47,0.00,,,0.01,VWS V14.01,2013-07-12 19:47:00,
2013-07-12 15:52:00,82.0,60.4,29.84,NE,48,3.0,3.0,48,0.00,,,0.01,VWS V14.01,2013-07-12 19:52:00,
2013-07-12 15:58:00,81.8,59.6,29.84,NNW,338,3.0,3.0,47,0.00,,,0.01,VWS V14.01,2013-07-12 19:58:00,
2013-07-12 16:03:00,81.8,59.0,29.83,NNW,348,2.0,3.0,46,0.00,,,0.01,VWS V14.01,2013-07-12 20:03:00,
2013-07-12 16:09:00,81.8,59.0,29.83,ENE,67,2.0,3.0,46,0.00,,,0.01,VWS V14.01,2013-07-12 20:09:00,
2013-07-12 16:14:00,81.8,60.2,29.83,WSW,254,1.0,3.0,48,0.00,,,0.01,VWS V14.01,2013-07-12 20:14:00,
2013-07-12 16:19:00,82.4,59.6,29.83,NNW,334,3.0,3.0,46,0.00,,,0.01,VWS V14.01,2013-07-12 20:19:00,
2013-07-12 16:25:00,81.8,60.2,29.83,NNW,343,0.0,3.0,48,0.00,,,0.01,VWS V14.01,2013-07-12 20:25:00,
2013-07-12 16:31:00,82.2,60.6,29.83,NNW,343,1.0,3.0,48,0.00,,,0.01,VWS V14.01,2013-07-12 20:31:00,
2013-07-12 16:36:00,82.4,59.0,29.83,ENE,63,0.0,3.0,45,0.00,,,0.01,VWS V14.01,2013-07-12 20:36:00,
2013-07-12 16:42:00,82.0,59.2,29.83,ENE,59,1.0,3.0,46,0.00,,,0.01,VWS V14.01,2013-07-12 20:42:00,
2013-07-12 16:47:00,82.2,61.2,29.82,SW,214,1.0,3.0,49,0.00,,,0.01,VWS V14.01,2013-07-12 20:47:00,
2013-07-12 16:52:00,82.6,61.5,29.82,WSW,249,0.0,3.0,49,0.00,,,0.01,VWS V14.01,2013-07-12 20:52:00,
2013-07-12 16:58:00,82.2,61.2,29.82,SSW,196,1.0,3.0,49,0.00,,,0.01,VWS V14.01,2013-07-12 20:58:00,
2013-07-12 17:03:00,82.6,59.8,29.82,West,269,1.0,3.0,46,0.00,,,0.01,VWS V14.01,2013-07-12 21:03:00,
2013-07-12 17:08:00,83.6,61.8,29.82,SSW,210,0.0,3.0,48,0.00,,,0.01,VWS V14.01,2013-07-12 21:08:00,
2013-07-12 17:13:00,84.0,60.4,29.82,SSW,209,0.0,3.0,45,0.00,,,0.01,VWS V14.01,2013-07-12 21:13:00,
2013-07-12 17:19:00,83.8,60.2,29.82,WNW,285,0.0,3.0,45,0.00,,,0.01,VWS V14.01,2013-07-12 21:19:00,
2013-07-12 17:24:00,82.4,59.0,29.82,North,5,0.0,3.0,45,0.00,,,0.01,VWS V14.01,2013-07-12 21:24:00,
2013-07-12 17:30:00,82.6,59.8,29.82,WSW,250,2.0,3.0,46,0.00,,,0.01,VWS V14.01,2013-07-12 21:30:00,
2013-07-12 17:36:00,82.8,58.7,29.83,SSW,207,0.0,3.0,44,0.00,,,0.01,VWS V14.01,2013-07-12 21:36:00,
2013-07-12 17:41:00,82.8,59.9,29.83,SSW,204,0.0,3.0,46,0.00,,,0.01,VWS V14.01,2013-07-12 21:41:00,
2013-07-12 17:46:00,82.6,60.3,29.83,NW,313,0.0,3.0,47,0.00,,,0.01,VWS V14.01,2013-07-12 21:46:00,
2013-07-12 17:52:00,82.6,59.1,29.83,SSW,200,1.0,3.0,45,0.00,,,0.01,VWS V14.01,2013-07-12 21:52:00,
2013-07-12 17:58:00,82.2,60.0,29.83,West,259,0.0,3.0,47,0.00,,,0.01,VWS V14.01,2013-07-12 21:58:00,
2013-07-12 18:03:00,81.2,60.8,29.83,West,259,0.0,3.0,50,0.00,,,0.01,VWS V14.01,2013-07-12 22:03:00,
2013-07-12 18:09:00,79.8,61.7,29.83,West,270,0.0,3.0,54,0.00,,,0.01,VWS V14.01,2013-07-12 22:09:00,
2013-07-12 18:14:00,78.8,60.8,29.83,NNE,30,0.0,3.0,54,0.00,,,0.01,VWS V14.01,2013-07-12 22:14:00,
2013-07-12 18:19:00,77.9,61.5,29.84,NNE,30,0.0,3.0,57,0.00,,,0.01,VWS V14.01,2013-07-12 22:19:00,
2013-07-12 18:24:00,77.0,61.6,29.84,NNE,31,1.0,3.0,59,0.00,,,0.01,VWS V14.01,2013-07-12 22:24:00,
2013-07-12 18:30:00,76.3,60.5,29.84,NE,36,1.0,3.0,58,0.00,,,0.01,VWS V14.01,2013-07-12 22:30:00,
2013-07-12 18:35:00,76.1,61.2,29.84,NE,36,0.0,3.0,60,0.00,,,0.01,VWS V14.01,2013-07-12 22:35:00,
2013-07-12 18:40:00,75.8,61.4,29.84,NE,36,0.0,3.0,61,0.00,,,0.01,VWS V14.01,2013-07-12 22:40:00,
2013-07-12 18:45:00,75.6,61.7,29.84,NE,39,0.0,3.0,62,0.00,,,0.01,VWS V14.01,2013-07-12 22:45:00,
2013-07-12 18:51:00,75.6,64.3,29.85,NNE,32,0.0,3.0,68,0.00,,,0.01,VWS V14.01,2013-07-12 22:51:00,
2013-07-12 18:56:00,75.3,62.3,29.85,NE,35,1.0,3.0,64,0.00,,,0.01,VWS V14.01,2013-07-12 22:56:00,
2013-07-12 19:01:00,75.1,59.8,29.85,NNE,16,0.0,3.0,59,0.00,,,0.01,VWS V14.01,2013-07-12 23:01:00,
2013-07-12 19:06:00,75.3,60.5,29.85,ENE,76,0.0,3.0,60,0.00,,,0.01,VWS V14.01,2013-07-12 23:06:00,
2013-07-12 19:11:00,75.6,59.8,29.85,ENE,67,0.0,3.0,58,0.00,,,0.01,VWS V14.01,2013-07-12 23:11:00,
2013-07-12 19:17:00,75.8,60.0,29.85,NNE,30,0.0,3.0,58,0.00,,,0.01,VWS V14.01,2013-07-12 23:17:00,
2013-07-12 19:22:00,75.8,60.9,29.85,NE,53,1.0,3.0,60,0.00,,,0.01,VWS V14.01,2013-07-12 23:22:00,
2013-07-12 19:28:00,75.8,62.3,29.85,NE,53,0.0,3.0,63,0.00,,,0.01,VWS V14.01,2013-07-12 23:28:00,
2013-07-12 19:33:00,75.6,63.0,29.85,ENE,74,0.0,3.0,65,0.00,,,0.01,VWS V14.01,2013-07-12 23:33:00,
2013-07-12 19:39:00,75.1,61.7,29.85,ENE,74,2.0,3.0,63,0.00,,,0.01,VWS V14.01,2013-07-12 23:39:00,
2013-07-12 19:44:00,74.9,62.8,29.85,NE,52,1.0,3.0,66,0.00,,,0.01,VWS V14.01,2013-07-12 23:44:00,
2013-07-12 19:49:00,74.7,61.3,29.85,East,96,1.0,3.0,63,0.00,,,0.01,VWS V14.01,2013-07-12 23:49:00,
2013-07-12 19:54:00,74.6,63.3,29.85,NE,38,1.0,3.0,68,0.00,,,0.01,VWS V14.01,2013-07-12 23:54:00,
2013-07-12 20:01:00,73.9,61.4,29.86,East,83,0.0,3.0,65,0.00,,,0.01,VWS V14.01,2013-07-13 00:01:00,
2013-07-12 20:06:00,73.9,63.5,29.86,NE,40,0.0,3.0,70,0.00,,,0.01,VWS V14.01,2013-07-13 00:06:00,
2013-07-12 20:11:00,73.5,63.9,29.86,NE,37,0.0,3.0,72,0.00,,,0.01,VWS V14.01,2013-07-13 00:11:00,
2013-07-12 20:16:00,73.2,62.8,29.86,NE,37,1.0,3.0,70,0.00,,,0.01,VWS V14.01,2013-07-13 00:16:00,
2013-07-12 20:22:00,72.7,62.8,29.86,NE,46,2.0,3.0,71,0.00,,,0.01,VWS V14.01,2013-07-13 00:22:00,
2013-07-12 20:27:00,72.5,62.2,29.86,NNE,27,2.0,3.0,70,0.00,,,0.01,VWS V14.01,2013-07-13 00:27:00,
2013-07-12 20:33:00,72.7,61.5,29.86,NNE,26,1.0,3.0,68,0.00,,,0.01,VWS V14.01,2013-07-13 00:33:00,
2013-07-12 20:38:00,72.7,63.2,29.86,NNE,26,0.0,3.0,72,0.00,,,0.01,VWS V14.01,2013-07-13 00:38:00,
2013-07-12 20:43:00,72.5,62.2,29.86,NNE,32,0.0,3.0,70,0.00,,,0.01,VWS V14.01,2013-07-13 00:43:00,
2013-07-12 20:48:00,72.1,62.6,29.86,NNE,32,1.0,3.0,72,0.00,,,0.01,VWS V14.01,2013-07-13 00:48:00,
2013-07-12 20:53:00,71.8,63.1,29.86,NNE,32,2.0,3.0,74,0.00,,,0.01,VWS V14.01,2013-07-13 00:53:00,
2013-07-12 20:59:00,71.5,62.4,29.86,North,360,1.0,3.0,73,0.00,,,0.01,VWS V14.01,2013-07-13 00:59:00,
2013-07-12 21:04:00,71.3,62.2,29.87,North,360,1.0,3.0,73,0.00,,,0.01,VWS V14.01,2013-07-13 01:04:00,
2013-07-12 21:09:00,71.3,62.2,29.87,NNE,27,2.0,3.0,73,0.00,,,0.01,VWS V14.01,2013-07-13 01:09:00,
2013-07-12 21:15:00,71.3,61.8,29.87,North,5,1.0,3.0,72,0.00,,,0.01,VWS V14.01,2013-07-13 01:15:00,
2013-07-12 21:20:00,71.3,61.4,29.88,North,360,1.0,3.0,71,0.00,,,0.01,VWS V14.01,2013-07-13 01:20:00,
2013-07-12 21:26:00,71.3,61.8,29.88,NNE,30,0.0,3.0,72,0.00,,,0.01,VWS V14.01,2013-07-13 01:26:00,
2013-07-12 21:31:00,71.3,61.8,29.88,North,5,2.0,3.0,72,0.00,,,0.01,VWS V14.01,2013-07-13 01:31:00,
2013-07-12 21:37:00,71.3,61.8,29.88,East,79,1.0,3.0,72,0.00,,,0.01,VWS V14.01,2013-07-13 01:37:00,
2013-07-12 21:42:00,71.1,61.6,29.88,NNE,19,0.0,3.0,72,0.00,,,0.01,VWS V14.01,2013-07-13 01:42:00,
2013-07-12 21:48:00,71.1,61.6,29.89,NE,34,2.0,3.0,72,0.00,,,0.01,VWS V14.01,2013-07-13 01:48:00,
2013-07-12 21:54:00,70.9,61.4,29.89,NNE,22,1.0,3.0,72,0.00,,,0.01,VWS V14.01,2013-07-13 01:54:00,
2013-07-12 21:59:00,70.9,61.8,29.89,NW,323,3.0,3.0,73,0.00,,,0.01,VWS V14.01,2013-07-13 01:59:00,
2013-07-12 22:04:00,70.9,61.8,29.89,NW,323,0.0,3.0,73,0.00,,,0.01,VWS V14.01,2013-07-13 02:04:00,
2013-07-12 22:09:00,70.8,62.1,29.89,NNW,331,0.0,3.0,74,0.00,,,0.01,VWS V14.01,2013-07-13 02:09:00,
2013-07-12 22:15:00,70.6,61.5,29.89,NW,305,3.0,3.0,73,0.00,,,0.01,VWS V14.01,2013-07-13 02:15:00,
2013-07-12 22:21:00,70.6,61.9,29.88,North,360,1.0,3.0,74,0.00,,,0.01,VWS V14.01,2013-07-13 02:21:00,
2013-07-12 22:26:00,70.4,61.7,29.88,NNE,30,3.0,3.0,74,0.00,,,0.01,VWS V14.01,2013-07-13 02:26:00,
2013-07-12 22:31:00,70.3,62.0,29.89,North,11,0.0,3.0,75,0.00,,,0.01,VWS V14.01,2013-07-13 02:31:00,
2013-07-12 22:36:00,70.1,61.8,29.89,North,350,0.0,3.0,75,0.00,,,0.01,VWS V14.01,2013-07-13 02:36:00,
2013-07-12 22:41:00,69.9,61.6,29.89,NW,311,1.0,3.0,75,0.00,,,0.01,VWS V14.01,2013-07-13 02:41:00,
2013-07-12 22:46:00,69.9,62.0,29.89,NW,311,0.0,3.0,76,0.00,,,0.01,VWS V14.01,2013-07-13 02:46:00,
2013-07-12 22:53:00,69.8,61.9,29.89,NW,311,0.0,3.0,76,0.00,,,0.01,VWS V14.01,2013-07-13 02:53:00,
2013-07-12 22:59:00,69.6,62.1,29.89,NW,311,0.0,3.0,77,0.00,,,0.01,VWS V14.01,2013-07-13 02:59:00,
2013-07-12 23:04:00,69.3,61.8,29.89,NNE,19,0.0,3.0,77,0.00,,,0.01,VWS V14.01,2013-07-13 03:04:00,
2013-07-12 23:09:00,69.1,62.0,29.89,WNW,303,0.0,3.0,78,0.00,,,0.01,VWS V14.01,2013-07-13 03:09:00,
2013-07-12 23:14:00,68.9,61.4,29.89,NW,311,4.0,4.0,77,0.00,,,0.01,VWS V14.01,2013-07-13 03:14:00,
2013-07-12 23:20:00,68.9,61.8,29.89,NW,321,1.0,3.0,78,0.00,,,0.01,VWS V14.01,2013-07-13 03:20:00,
2013-07-12 23:25:00,68.9,61.8,29.89,NW,321,0.0,3.0,78,0.00,,,0.01,VWS V14.01,2013-07-13 03:25:00,
2013-07-12 23:30:00,68.8,61.3,29.89,NW,321,0.0,3.0,77,0.00,,,0.01,VWS V14.01,2013-07-13 03:30:00,
2013-07-12 23:35:00,68.8,60.9,29.90,NNE,19,0.0,3.0,76,0.00,,,0.01,VWS V14.01,2013-07-13 03:35:00,
2013-07-12 23:41:00,68.6,61.1,29.90,NNE,19,0.0,3.0,77,0.00,,,0.01,VWS V14.01,2013-07-13 03:41:00,
2013-07-12 23:46:00,68.6,61.1,29.90,NE,38,0.0,3.0,77,0.00,,,0.01,VWS V14.01,2013-07-13 03:46:00,
2013-07-12 23:51:00,68.4,60.9,29.90,NE,38,0.0,3.0,77,0.00,,,0.01,VWS V14.01,2013-07-13 03:51:00,
2013-07-12 23:56:00,68.3,61.2,29.90,NE,38,0.0,3.0,78,0.00,,,0.01,VWS V14.01,2013-07-13 03:56:00,